Change the Weather History Date:

Wednesday, December 5, 2012

  Actual Average (KESC) Record (KESC)
Temperature  
Mean Temperature 27 °F -  
Max Temperature 30 °F 32 °F 53 °F (2001)
Min Temperature 24 °F 19 °F 0 °F (1958)
Degree Days  
Heating Degree Days 38    
Moisture  
Dew Point 18 °F    
Average Humidity 73    
Maximum Humidity 82    
Minimum Humidity 55    
Precipitation  
Precipitation 0.00 in - - ()
Sea Level Pressure  
Sea Level Pressure 30.25 in    
Wind  
Wind Speed 11 mph (West)    
Max Wind Speed 22 mph    
Max Gust Speed 29 mph    
Visibility 10 miles    
Events Snow    
Averages and records for this station are not official NWS values.
T = Trace of Precipitation, MM = Missing Value Source: NWS Daily Summary

Daily Weather History Graph

Daily Weather History Graph

Search for Another Location

Airport or City:

Trip Planner

Search our weather history database for the weather conditions in past years. The results will help you decide how hot, cold, wet, or windy it might be!

Date:

Astronomy

Dec. 05, 2012 Rise Set
Actual Time 8:17 AM EST 5:03 PM EST
Civil Twilight 7:42 AM EST 5:37 PM EST
Nautical Twilight 7:04 AM EST 6:15 PM EST
Astronomical Twilight 6:28 AM EST 6:52 PM EST
Moon No Moon Rise 12:24 PM EST (12/5)
Length of Visible Light 9h 54m
Length of Day
8h 46m
Waning Gibbous, 60% of the Moon is Illuminated
Dec 5
Waning Gibbous
Dec 6
Last Quarter
Dec 13
New
Dec 20
First Quarter
Dec 28
Full

Hourly Weather History & Observations

Time (EST) Temp. Windchill Dew Point Humidity Pressure Visibility Wind Dir Wind Speed Gust Speed Precip Events Conditions
12:16 AM 24.8 °F 14.6 °F 17.4 °F 74% 30.19 in 10.0 mi NW 10.4 mph 17.3 mph N/A Snow Light Snow
12:36 AM 24.4 °F 14.9 °F 18.7 °F 79% 30.20 in 4.0 mi NW 9.2 mph 16.1 mph N/A Snow Light Snow
12:56 AM 24.8 °F 14.6 °F 18.3 °F 76% 30.20 in 10.0 mi NW 10.4 mph - N/A   Overcast
1:15 AM 24.8 °F 14.0 °F 18.9 °F 78% 30.21 in 10.0 mi NW 11.5 mph - N/A   Overcast
1:36 AM 24.8 °F 14.6 °F 18.5 °F 77% 30.21 in 7.0 mi NW 10.4 mph - N/A Snow Light Snow
1:56 AM 24.4 °F 11.9 °F 18.3 °F 78% 30.22 in 7.0 mi NNW 15.0 mph 18.4 mph N/A Snow Light Snow
2:15 AM 24.4 °F 14.2 °F 19.0 °F 80% 30.24 in 4.0 mi NW 10.4 mph - N/A Snow Light Snow
2:36 AM 24.3 °F 13.9 °F 19.4 °F 82% 30.25 in 7.0 mi NW 10.4 mph - N/A Snow Light Snow
2:56 AM 24.4 °F 14.9 °F 19.6 °F 82% 30.26 in 10.0 mi WNW 9.2 mph - N/A   Overcast
3:15 AM 24.6 °F 15.1 °F 19.0 °F 79% 30.26 in 10.0 mi NW 9.2 mph - N/A Snow Light Snow
3:36 AM 24.8 °F 14.6 °F 17.8 °F 75% 30.27 in 10.0 mi NW 10.4 mph - N/A Snow Light Snow
3:56 AM 24.8 °F 14.6 °F 17.1 °F 72% 30.28 in 10.0 mi NW 10.4 mph - N/A   Overcast
4:15 AM 24.6 °F 15.1 °F 16.7 °F 72% 30.27 in 10.0 mi NW 9.2 mph - N/A Snow Light Snow
4:36 AM 24.6 °F 15.1 °F 16.5 °F 71% 30.28 in 10.0 mi NW 9.2 mph - N/A   Overcast
4:56 AM 24.8 °F 15.3 °F 16.2 °F 70% 30.29 in 10.0 mi NW 9.2 mph - N/A   Overcast
5:16 AM 24.8 °F 14.6 °F 15.8 °F 69% 30.30 in 10.0 mi NNW 10.4 mph 19.6 mph N/A   Overcast
5:36 AM 24.8 °F 15.3 °F 15.8 °F 69% 30.30 in 10.0 mi NNW 9.2 mph 17.3 mph N/A   Overcast
5:55 AM 24.8 °F 14.0 °F 15.6 °F 68% 30.31 in 10.0 mi NNW 11.5 mph - N/A   Overcast
6:50 AM 24.8 °F 15.3 °F 15.8 °F 69% 30.33 in 10.0 mi NNW 9.2 mph - N/A   Overcast
7:50 AM 24.8 °F 15.3 °F 15.8 °F 69% 30.36 in 10.0 mi NNW 9.2 mph - N/A   Overcast
9:55 AM 24.8 °F 16.1 °F 15.8 °F 69% 30.38 in 10.0 mi NW 8.1 mph - N/A   Overcast
10:50 AM 26.6 °F 20.0 °F 15.8 °F 64% 30.38 in 10.0 mi NNW 5.8 mph - N/A   Overcast
11:55 AM 26.6 °F 21.2 °F 17.6 °F 69% 30.36 in 10.0 mi North 4.6 mph - N/A   Overcast
12:50 PM 26.6 °F - 17.6 °F 69% 30.36 in 10.0 mi Calm Calm - N/A   Overcast
1:50 PM 28.4 °F 24.6 °F 17.6 °F 64% 30.33 in 10.0 mi SSE 3.5 mph - N/A   Overcast
2:50 PM 30.2 °F 23.4 °F 17.6 °F 60% 30.31 in 10.0 mi South 6.9 mph - N/A   Scattered Clouds
3:50 PM 30.2 °F 21.9 °F 15.8 °F 55% 30.29 in 10.0 mi South 9.2 mph - N/A   Clear
4:50 PM 28.4 °F 19.1 °F 15.8 °F 59% 30.27 in 10.0 mi South 10.4 mph - N/A   Clear
5:50 PM 26.6 °F 16.8 °F 17.6 °F 69% 30.26 in 10.0 mi South 10.4 mph - N/A   Clear
6:50 PM 24.8 °F 14.0 °F 17.6 °F 74% 30.26 in 10.0 mi South 11.5 mph - N/A   Clear
7:50 PM 24.8 °F 14.0 °F 17.6 °F 74% 30.26 in 10.0 mi South 11.5 mph - N/A   Clear
8:50 PM 24.8 °F 14.0 °F 17.6 °F 74% 30.26 in 10.0 mi South 11.5 mph - N/A   Clear
9:45 PM 26.6 °F 13.8 °F 19.4 °F 74% 30.16 in 10.0 mi South 17.3 mph 23.0 mph N/A   Clear
10:16 PM 27.0 °F 14.3 °F 20.8 °F 78% 30.16 in 10.0 mi South 17.3 mph 23.0 mph N/A   Scattered Clouds
10:36 PM 26.6 °F 13.1 °F 21.2 °F 80% 30.15 in 10.0 mi South 19.6 mph 27.6 mph N/A   Scattered Clouds
10:56 PM 27.5 °F 13.9 °F 21.4 °F 78% 30.14 in 10.0 mi SSW 20.7 mph 25.3 mph N/A   Mostly Cloudy
11:15 PM 27.9 °F 14.0 °F 21.7 °F 78% 30.13 in 10.0 mi SSW 21.9 mph 28.8 mph N/A   Overcast
11:36 PM 28.4 °F 15.1 °F 22.1 °F 77% 30.12 in 10.0 mi South 20.7 mph 27.6 mph N/A   Overcast
11:56 PM 28.4 °F 15.4 °F 22.5 °F 78% 30.11 in 10.0 mi SSW 19.6 mph 26.5 mph N/A   Overcast